Time,TemperatureF,DewpointF,PressureIn,WindDirection,WindDirectionDegrees,WindSpeedMPH,WindSpeedGustMPH,Humidity,HourlyPrecipIn,Conditions,Clouds,dailyrainin,SolarRadiationWatts/m^2,SoftwareType,DateUTC
2013-07-15 00:00:00,74.5,71.1,30.04,ESE,117,2.0,5.0,89,0.00,,,0.00,0.00,VWS V14.01,2013-07-15 05:00:00,
2013-07-15 00:01:00,74.5,71.1,30.04,ESE,117,3.0,4.0,89,0.00,,,0.00,0.00,VWS V14.01,2013-07-15 05:01:00,
2013-07-15 00:06:00,74.4,70.9,30.04,ESE,117,4.0,5.0,89,0.00,,,0.00,0.00,VWS V14.01,2013-07-15 05:06:00,
2013-07-15 00:10:00,74.4,70.9,30.04,ESE,123,2.0,7.0,89,0.00,,,0.00,0.00,VWS V14.01,2013-07-15 05:10:00,
2013-07-15 00:11:00,74.5,71.1,30.04,ESE,123,3.0,3.0,89,0.00,,,0.00,0.00,VWS V14.01,2013-07-15 05:11:00,
2013-07-15 00:16:00,74.4,70.9,30.04,SE,125,3.0,5.0,89,0.00,,,0.00,0.00,VWS V14.01,2013-07-15 05:16:00,
2013-07-15 00:20:00,74.4,71.3,30.04,SE,125,1.0,5.0,90,0.00,,,0.00,0.00,VWS V14.01,2013-07-15 05:20:00,
2013-07-15 00:21:00,74.3,71.2,30.05,SE,126,2.0,2.0,90,0.00,,,0.00,0.00,VWS V14.01,2013-07-15 05:21:00,
2013-07-15 00:31:00,74.4,71.3,30.05,ESE,117,2.0,2.0,90,0.00,,,0.00,0.00,VWS V14.01,2013-07-15 05:31:00,
2013-07-15 00:36:00,74.3,71.2,30.05,ESE,123,1.0,7.0,90,0.00,,,0.00,0.00,VWS V14.01,2013-07-15 05:36:00,
2013-07-15 00:40:00,74.2,71.1,30.05,ESE,114,3.0,7.0,90,0.00,,,0.00,0.00,VWS V14.01,2013-07-15 05:40:00,
2013-07-15 00:41:00,74.2,71.1,30.05,ESE,115,4.0,5.0,90,0.00,,,0.00,0.00,VWS V14.01,2013-07-15 05:41:00,
2013-07-15 00:46:00,74.1,71.0,30.05,ESE,118,2.0,7.0,90,0.00,,,0.00,0.00,VWS V14.01,2013-07-15 05:46:00,
2013-07-15 00:51:00,74.0,70.9,30.05,ESE,119,3.0,5.0,90,0.00,,,0.00,0.00,VWS V14.01,2013-07-15 05:51:00,
2013-07-15 00:56:00,74.0,70.9,30.05,ESE,112,2.0,7.0,90,0.00,,,0.00,0.00,VWS V14.01,2013-07-15 05:56:00,
2013-07-15 01:00:00,73.9,70.8,30.04,ESE,122,5.0,7.0,90,0.00,,,0.00,0.00,VWS V14.01,2013-07-15 06:00:00,
2013-07-15 01:01:00,73.9,71.1,30.04,ESE,116,4.0,7.0,91,0.00,,,0.00,0.00,VWS V14.01,2013-07-15 06:01:00,
2013-07-15 01:06:00,73.8,71.0,30.04,ESE,110,4.0,8.0,91,0.00,,,0.00,0.00,VWS V14.01,2013-07-15 06:06:00,
2013-07-15 01:10:00,73.7,70.9,30.04,ESE,111,4.0,8.0,91,0.00,,,0.00,0.00,VWS V14.01,2013-07-15 06:10:00,
2013-07-15 01:11:00,73.7,70.9,30.04,ESE,111,0.0,5.0,91,0.00,,,0.00,0.00,VWS V14.01,2013-07-15 06:11:00,
2013-07-15 01:16:00,73.7,70.9,30.04,ESE,105,1.0,5.0,91,0.00,,,0.00,0.00,VWS V14.01,2013-07-15 06:16:00,
2013-07-15 01:20:00,73.7,70.9,30.04,ESE,117,4.0,7.0,91,0.00,,,0.00,0.00,VWS V14.01,2013-07-15 06:20:00,
2013-07-15 01:21:00,73.7,70.9,30.04,ESE,116,4.0,5.0,91,0.00,,,0.00,0.00,VWS V14.01,2013-07-15 06:21:00,
2013-07-15 01:26:00,73.7,70.9,30.04,ESE,115,1.0,7.0,91,0.00,,,0.00,0.00,VWS V14.01,2013-07-15 06:26:00,
2013-07-15 01:30:00,73.7,70.9,30.04,ESE,115,1.0,7.0,91,0.00,,,0.00,0.00,VWS V14.01,2013-07-15 06:30:00,
2013-07-15 01:31:00,73.7,70.9,30.04,ESE,117,4.0,4.0,91,0.00,,,0.00,0.00,VWS V14.01,2013-07-15 06:31:00,
2013-07-15 01:36:00,73.7,70.9,30.04,ESE,117,2.0,7.0,91,0.00,,,0.00,0.00,VWS V14.01,2013-07-15 06:36:00,
2013-07-15 01:40:00,73.7,70.9,30.04,ESE,103,5.0,7.0,91,0.00,,,0.00,0.00,VWS V14.01,2013-07-15 06:40:00,
2013-07-15 01:41:00,73.7,70.9,30.04,ESE,112,5.0,7.0,91,0.00,,,0.00,0.00,VWS V14.01,2013-07-15 06:41:00,
2013-07-15 01:46:00,73.7,70.9,30.03,SE,126,3.0,7.0,91,0.00,,,0.00,0.00,VWS V14.01,2013-07-15 06:46:00,
2013-07-15 01:50:00,73.7,70.9,30.04,ESE,118,4.0,7.0,91,0.00,,,0.00,0.00,VWS V14.01,2013-07-15 06:50:00,
2013-07-15 01:51:00,73.7,70.9,30.03,ESE,122,5.0,7.0,91,0.00,,,0.00,0.00,VWS V14.01,2013-07-15 06:51:00,
2013-07-15 01:56:00,73.7,70.9,30.03,ESE,121,3.0,8.0,91,0.00,,,0.00,0.00,VWS V14.01,2013-07-15 06:56:00,
2013-07-15 02:00:00,73.7,70.9,30.03,SE,128,3.0,8.0,91,0.00,,,0.00,0.00,VWS V14.01,2013-07-15 07:00:00,
2013-07-15 02:01:00,73.8,71.0,30.03,ESE,117,5.0,7.0,91,0.00,,,0.00,0.00,VWS V14.01,2013-07-15 07:01:00,
2013-07-15 02:06:00,73.8,71.0,30.03,ESE,109,2.0,8.0,91,0.00,,,0.00,0.00,VWS V14.01,2013-07-15 07:06:00,
2013-07-15 02:10:00,73.8,71.0,30.03,ESE,117,3.0,8.0,91,0.00,,,0.00,0.00,VWS V14.01,2013-07-15 07:10:00,
2013-07-15 02:11:00,73.9,71.1,30.03,SE,125,5.0,7.0,91,0.00,,,0.00,0.00,VWS V14.01,2013-07-15 07:11:00,
2013-07-15 02:16:00,73.9,71.1,30.04,ESE,121,2.0,7.0,91,0.00,,,0.00,0.00,VWS V14.01,2013-07-15 07:16:00,
2013-07-15 02:20:00,73.8,71.0,30.03,ESE,105,4.0,7.0,91,0.00,,,0.00,0.00,VWS V14.01,2013-07-15 07:20:00,
2013-07-15 02:21:00,73.8,71.0,30.03,ESE,117,2.0,7.0,91,0.00,,,0.00,0.00,VWS V14.01,2013-07-15 07:21:00,
2013-07-15 02:26:00,73.8,71.0,30.03,East,101,5.0,7.0,91,0.00,,,0.00,0.00,VWS V14.01,2013-07-15 07:26:00,
2013-07-15 02:30:00,73.9,71.1,30.03,ESE,113,4.0,8.0,91,0.00,,,0.00,0.00,VWS V14.01,2013-07-15 07:30:00,
2013-07-15 02:31:00,73.9,71.1,30.04,SE,126,5.0,7.0,91,0.00,,,0.00,0.00,VWS V14.01,2013-07-15 07:31:00,
2013-07-15 02:36:00,73.9,71.1,30.04,ESE,119,3.0,7.0,91,0.00,,,0.00,0.00,VWS V14.01,2013-07-15 07:36:00,
2013-07-15 02:40:00,73.9,71.1,30.04,ESE,111,2.0,7.0,91,0.00,,,0.00,0.00,VWS V14.01,2013-07-15 07:40:00,
2013-07-15 02:41:00,73.9,71.1,30.04,ESE,111,2.0,4.0,91,0.00,,,0.00,0.00,VWS V14.01,2013-07-15 07:41:00,
2013-07-15 02:46:00,73.9,71.1,30.04,ESE,107,1.0,5.0,91,0.00,,,0.00,0.00,VWS V14.01,2013-07-15 07:46:00,
2013-07-15 02:50:00,73.8,71.0,30.05,ESE,121,3.0,5.0,91,0.00,,,0.00,0.00,VWS V14.01,2013-07-15 07:50:00,
2013-07-15 02:51:00,73.8,71.0,30.05,ESE,122,2.0,3.0,91,0.00,,,0.00,0.00,VWS V14.01,2013-07-15 07:51:00,
2013-07-15 02:56:00,73.7,70.9,30.05,ESE,113,2.0,5.0,91,0.00,,,0.00,0.00,VWS V14.01,2013-07-15 07:56:00,
2013-07-15 03:00:00,73.7,70.9,30.04,East,98,1.0,5.0,91,0.00,,,0.00,0.00,VWS V14.01,2013-07-15 08:00:00,
2013-07-15 03:01:00,73.6,70.8,30.04,East,98,3.0,3.0,91,0.00,,,0.00,0.00,VWS V14.01,2013-07-15 08:01:00,
2013-07-15 03:06:00,73.5,70.7,30.04,East,100,0.0,5.0,91,0.00,,,0.00,0.00,VWS V14.01,2013-07-15 08:06:00,
2013-07-15 03:10:00,73.5,70.7,30.04,East,98,1.0,5.0,91,0.00,,,0.00,0.00,VWS V14.01,2013-07-15 08:10:00,
2013-07-15 03:11:00,73.5,70.7,30.05,East,98,0.0,2.0,91,0.00,,,0.00,0.00,VWS V14.01,2013-07-15 08:11:00,
2013-07-15 03:16:00,73.4,70.6,30.04,East,97,0.0,5.0,91,0.00,,,0.00,0.00,VWS V14.01,2013-07-15 08:16:00,
2013-07-15 03:20:00,73.4,70.6,30.04,East,98,1.0,5.0,91,0.00,,,0.00,0.00,VWS V14.01,2013-07-15 08:20:00,
2013-07-15 03:21:00,73.4,70.6,30.04,ESE,102,2.0,4.0,91,0.00,,,0.00,0.00,VWS V14.01,2013-07-15 08:21:00,
2013-07-15 03:26:00,73.4,70.6,30.04,ESE,102,0.0,4.0,91,0.00,,,0.00,0.00,VWS V14.01,2013-07-15 08:26:00,
2013-07-15 03:30:00,73.4,70.6,30.04,ESE,102,1.0,4.0,91,0.00,,,0.00,0.00,VWS V14.01,2013-07-15 08:30:00,
2013-07-15 03:31:00,73.4,70.6,30.04,ESE,102,1.0,3.0,91,0.00,,,0.00,0.00,VWS V14.01,2013-07-15 08:31:00,
2013-07-15 03:36:00,73.4,70.6,30.04,ESE,106,0.0,4.0,91,0.00,,,0.00,0.00,VWS V14.01,2013-07-15 08:36:00,
2013-07-15 03:40:00,73.4,70.6,30.04,ESE,106,1.0,4.0,91,0.00,,,0.00,0.00,VWS V14.01,2013-07-15 08:40:00,
2013-07-15 03:41:00,73.3,70.5,30.04,ESE,106,1.0,3.0,91,0.00,,,0.00,0.00,VWS V14.01,2013-07-15 08:41:00,
2013-07-15 03:46:00,73.3,70.5,30.04,ESE,106,0.0,3.0,91,0.00,,,0.00,0.00,VWS V14.01,2013-07-15 08:46:00,
2013-07-15 03:50:00,73.3,70.5,30.04,ESE,113,0.0,5.0,91,0.00,,,0.00,0.00,VWS V14.01,2013-07-15 08:50:00,
2013-07-15 03:51:00,73.3,70.5,30.04,ESE,113,2.0,3.0,91,0.00,,,0.00,0.00,VWS V14.01,2013-07-15 08:51:00,
2013-07-15 03:56:00,73.3,70.5,30.04,ESE,115,1.0,5.0,91,0.00,,,0.00,0.00,VWS V14.01,2013-07-15 08:56:00,
2013-07-15 04:00:00,73.3,70.5,30.04,ESE,115,2.0,5.0,91,0.00,,,0.00,0.00,VWS V14.01,2013-07-15 09:00:00,
2013-07-15 04:01:00,73.3,70.5,30.05,ESE,115,5.0,5.0,91,0.00,,,0.00,0.00,VWS V14.01,2013-07-15 09:01:00,
2013-07-15 04:06:00,73.4,70.9,30.05,ESE,114,5.0,7.0,92,0.00,,,0.00,0.00,VWS V14.01,2013-07-15 09:06:00,
2013-07-15 04:10:00,73.5,71.0,30.05,ESE,122,2.0,8.0,92,0.00,,,0.00,0.00,VWS V14.01,2013-07-15 09:10:00,
2013-07-15 04:11:00,73.5,71.0,30.05,SE,130,5.0,7.0,92,0.00,,,0.00,0.00,VWS V14.01,2013-07-15 09:11:00,
2013-07-15 04:16:00,73.5,71.0,30.05,ESE,118,1.0,7.0,92,0.00,,,0.00,0.00,VWS V14.01,2013-07-15 09:16:00,
2013-07-15 04:20:00,73.5,71.0,30.05,ESE,123,5.0,7.0,92,0.00,,,0.00,0.00,VWS V14.01,2013-07-15 09:20:00,
2013-07-15 04:21:00,73.5,71.0,30.05,ESE,115,5.0,7.0,92,0.00,,,0.00,0.00,VWS V14.01,2013-07-15 09:21:00,
2013-07-15 04:26:00,73.5,71.0,30.05,ESE,122,2.0,7.0,92,0.00,,,0.00,0.00,VWS V14.01,2013-07-15 09:26:00,
2013-07-15 04:30:00,73.5,71.0,30.05,ESE,123,4.0,7.0,92,0.00,,,0.00,0.00,VWS V14.01,2013-07-15 09:30:00,
2013-07-15 04:31:00,73.5,71.0,30.05,ESE,118,4.0,8.0,92,0.00,,,0.00,0.00,VWS V14.01,2013-07-15 09:31:00,
2013-07-15 04:36:00,73.5,71.0,30.06,ESE,118,1.0,8.0,92,0.00,,,0.00,0.00,VWS V14.01,2013-07-15 09:36:00,
2013-07-15 04:40:00,73.5,71.0,30.06,SE,142,3.0,8.0,92,0.00,,,0.00,0.00,VWS V14.01,2013-07-15 09:40:00,
2013-07-15 04:41:00,73.5,71.0,30.05,SE,137,2.0,3.0,92,0.00,,,0.00,0.00,VWS V14.01,2013-07-15 09:41:00,
2013-07-15 04:46:00,73.5,71.0,30.05,SE,132,3.0,5.0,92,0.00,,,0.00,0.00,VWS V14.01,2013-07-15 09:46:00,
2013-07-15 04:51:00,73.5,71.0,30.05,SE,132,1.0,2.0,92,0.00,,,0.00,0.00,VWS V14.01,2013-07-15 09:51:00,
2013-07-15 04:56:00,73.6,71.1,30.06,ESE,120,4.0,7.0,92,0.00,,,0.00,0.00,VWS V14.01,2013-07-15 09:56:00,
2013-07-15 05:00:00,73.7,71.2,30.06,ESE,122,3.0,7.0,92,0.00,,,0.00,0.00,VWS V14.01,2013-07-15 10:00:00,
2013-07-15 05:01:00,73.6,71.1,30.06,SE,125,2.0,5.0,92,0.00,,,0.00,0.00,VWS V14.01,2013-07-15 10:01:00,
2013-07-15 05:06:00,73.7,71.2,30.07,ESE,118,2.0,5.0,92,0.00,,,0.00,0.00,VWS V14.01,2013-07-15 10:06:00,
2013-07-15 05:10:00,73.8,71.3,30.07,East,100,3.0,7.0,92,0.00,,,0.00,0.00,VWS V14.01,2013-07-15 10:10:00,
2013-07-15 05:11:00,73.8,71.3,30.07,ESE,106,3.0,5.0,92,0.00,,,0.00,0.00,VWS V14.01,2013-07-15 10:11:00,
2013-07-15 05:16:00,73.8,71.3,30.07,SE,125,1.0,5.0,92,0.00,,,0.00,0.00,VWS V14.01,2013-07-15 10:16:00,
2013-07-15 05:20:00,73.8,71.3,30.07,ESE,113,3.0,5.0,92,0.00,,,0.00,0.00,VWS V14.01,2013-07-15 10:20:00,
2013-07-15 05:21:00,73.8,71.3,30.07,ESE,122,4.0,7.0,92,0.00,,,0.00,0.00,VWS V14.01,2013-07-15 10:21:00,
2013-07-15 05:26:00,73.9,71.4,30.07,ESE,115,2.0,7.0,92,0.00,,,0.00,0.00,VWS V14.01,2013-07-15 10:26:00,
2013-07-15 05:30:00,74.0,71.5,30.07,ESE,123,5.0,8.0,92,0.00,,,0.00,0.00,VWS V14.01,2013-07-15 10:30:00,
2013-07-15 05:31:00,74.0,71.5,30.07,ESE,113,4.0,7.0,92,0.00,,,0.00,0.00,VWS V14.01,2013-07-15 10:31:00,
2013-07-15 05:36:00,74.1,71.3,30.07,ESE,118,8.0,9.0,91,0.00,,,0.00,0.00,VWS V14.01,2013-07-15 10:36:00,
2013-07-15 05:40:00,74.1,71.3,30.07,ESE,122,3.0,9.0,91,0.00,,,0.00,0.00,VWS V14.01,2013-07-15 10:40:00,
2013-07-15 05:41:00,74.1,71.3,30.07,ESE,123,3.0,7.0,91,0.00,,,0.00,0.00,VWS V14.01,2013-07-15 10:41:00,
2013-07-15 05:46:00,74.1,71.3,30.08,ESE,117,3.0,7.0,91,0.00,,,0.00,0.00,VWS V14.01,2013-07-15 10:46:00,
2013-07-15 05:50:00,74.1,71.3,30.08,ESE,114,5.0,8.0,91,0.00,,,0.00,0.00,VWS V14.01,2013-07-15 10:50:00,
2013-07-15 05:51:00,74.1,71.6,30.08,ESE,113,3.0,5.0,92,0.00,,,0.00,0.00,VWS V14.01,2013-07-15 10:51:00,
2013-07-15 05:56:00,74.1,71.6,30.08,ESE,121,3.0,7.0,92,0.00,,,0.00,0.00,VWS V14.01,2013-07-15 10:56:00,
2013-07-15 06:00:00,74.2,71.7,30.08,SE,127,3.0,7.0,92,0.00,,,0.00,0.00,VWS V14.01,2013-07-15 11:00:00,
2013-07-15 06:01:00,74.2,71.7,30.08,SE,127,2.0,3.0,92,0.00,,,0.00,0.00,VWS V14.01,2013-07-15 11:01:00,
2013-07-15 06:06:00,74.3,71.5,30.08,SE,128,1.0,4.0,91,0.00,,,0.00,0.00,VWS V14.01,2013-07-15 11:06:00,
2013-07-15 06:10:00,74.3,71.5,30.09,SE,129,1.0,4.0,91,0.00,,,0.00,5.00,VWS V14.01,2013-07-15 11:10:00,
2013-07-15 06:11:00,74.3,71.5,30.09,SE,128,2.0,3.0,91,0.00,,,0.00,7.00,VWS V14.01,2013-07-15 11:11:00,
2013-07-15 06:16:00,74.4,71.6,30.09,East,96,1.0,4.0,91,0.00,,,0.00,12.00,VWS V14.01,2013-07-15 11:16:00,
2013-07-15 06:20:00,74.5,71.7,30.09,ESE,115,2.0,5.0,91,0.00,,,0.00,14.00,VWS V14.01,2013-07-15 11:20:00,
2013-07-15 06:21:00,74.6,71.8,30.09,ESE,114,4.0,4.0,91,0.00,,,0.00,16.00,VWS V14.01,2013-07-15 11:21:00,
2013-07-15 06:26:00,74.6,71.8,30.09,ESE,105,2.0,8.0,91,0.00,,,0.00,21.00,VWS V14.01,2013-07-15 11:26:00,
2013-07-15 06:31:00,74.7,71.9,30.09,ESE,107,0.0,2.0,91,0.00,,,0.00,18.00,VWS V14.01,2013-07-15 11:31:00,
2013-07-15 06:36:00,74.7,71.9,30.09,SE,134,1.0,7.0,91,0.00,,,0.00,16.00,VWS V14.01,2013-07-15 11:36:00,
2013-07-15 06:41:00,74.7,71.9,30.09,SE,130,3.0,5.0,91,0.00,,,0.00,19.00,VWS V14.01,2013-07-15 11:41:00,
2013-07-15 06:46:00,74.8,72.0,30.10,ESE,112,2.0,5.0,91,0.00,,,0.00,23.00,VWS V14.01,2013-07-15 11:46:00,
2013-07-15 06:50:00,74.8,71.7,30.10,SE,134,2.0,5.0,90,0.00,,,0.00,21.00,VWS V14.01,2013-07-15 11:50:00,
2013-07-15 06:51:00,74.8,71.7,30.10,SE,134,1.0,6.0,90,0.00,,,0.00,23.00,VWS V14.01,2013-07-15 11:51:00,
2013-07-15 06:56:00,74.7,71.9,30.10,ESE,116,3.0,6.0,91,0.00,,,0.00,26.00,VWS V14.01,2013-07-15 11:56:00,
2013-07-15 07:00:00,74.8,72.0,30.10,ESE,115,2.0,6.0,91,0.00,,,0.00,28.00,VWS V14.01,2013-07-15 12:00:00,
2013-07-15 07:01:00,74.8,72.0,30.10,SE,145,1.0,5.0,91,0.00,,,0.00,28.00,VWS V14.01,2013-07-15 12:01:00,
2013-07-15 07:06:00,74.7,71.9,30.10,SE,126,3.0,5.0,91,0.00,,,0.00,32.00,VWS V14.01,2013-07-15 12:06:00,
2013-07-15 07:10:00,74.7,71.9,30.10,SE,136,1.0,5.0,91,0.00,,,0.00,35.00,VWS V14.01,2013-07-15 12:10:00,
2013-07-15 07:11:00,74.7,71.9,30.10,SE,136,0.0,3.0,91,0.00,,,0.00,37.00,VWS V14.01,2013-07-15 12:11:00,
2013-07-15 07:16:00,74.8,72.0,30.11,ESE,122,0.0,5.0,91,0.00,,,0.00,47.00,VWS V14.01,2013-07-15 12:16:00,
2013-07-15 07:20:00,74.8,72.0,30.11,SE,140,2.0,5.0,91,0.00,,,0.00,53.00,VWS V14.01,2013-07-15 12:20:00,
2013-07-15 07:21:00,74.8,72.0,30.11,SE,140,1.0,3.0,91,0.00,,,0.00,58.00,VWS V14.01,2013-07-15 12:21:00,
2013-07-15 07:26:00,74.9,72.1,30.11,SE,140,3.0,3.0,91,0.00,,,0.00,76.00,VWS V14.01,2013-07-15 12:26:00,
2013-07-15 07:30:00,75.0,72.2,30.11,ESE,117,4.0,4.0,91,0.00,,,0.00,111.00,VWS V14.01,2013-07-15 12:30:00,
2013-07-15 07:31:00,75.1,72.3,30.11,ESE,121,3.0,4.0,91,0.00,,,0.00,111.00,VWS V14.01,2013-07-15 12:31:00,
2013-07-15 07:36:00,75.2,72.4,30.11,SE,128,4.0,7.0,91,0.00,,,0.00,132.00,VWS V14.01,2013-07-15 12:36:00,
2013-07-15 07:41:00,75.4,72.3,30.11,ESE,118,4.0,7.0,90,0.00,,,0.00,155.00,VWS V14.01,2013-07-15 12:41:00,
2013-07-15 07:46:00,75.8,73.0,30.11,ESE,117,7.0,8.0,91,0.00,,,0.00,244.00,VWS V14.01,2013-07-15 12:46:00,
2013-07-15 07:50:00,76.1,73.0,30.11,ESE,115,8.0,9.0,90,0.00,,,0.00,281.00,VWS V14.01,2013-07-15 12:50:00,
2013-07-15 07:51:00,76.2,73.1,30.11,ESE,119,4.0,8.0,90,0.00,,,0.00,355.00,VWS V14.01,2013-07-15 12:51:00,
2013-07-15 07:56:00,76.9,73.4,30.11,ESE,120,7.0,9.0,89,0.00,,,0.00,401.00,VWS V14.01,2013-07-15 12:56:00,
2013-07-15 08:01:00,77.4,73.6,30.12,ESE,119,5.0,8.0,88,0.00,,,0.00,234.00,VWS V14.01,2013-07-15 13:01:00,
2013-07-15 08:06:00,77.6,73.4,30.12,ESE,117,0.0,8.0,87,0.00,,,0.00,301.00,VWS V14.01,2013-07-15 13:06:00,
2013-07-15 08:10:00,77.9,73.7,30.12,SE,132,1.0,8.0,87,0.00,,,0.00,199.00,VWS V14.01,2013-07-15 13:10:00,
2013-07-15 08:11:00,77.9,73.7,30.12,ESE,119,4.0,7.0,87,0.00,,,0.00,199.00,VWS V14.01,2013-07-15 13:11:00,
2013-07-15 08:16:00,78.5,74.3,30.12,ESE,112,4.0,8.0,87,0.00,,,0.00,211.00,VWS V14.01,2013-07-15 13:16:00,
2013-07-15 08:20:00,78.5,74.0,30.12,SE,126,1.0,8.0,86,0.00,,,0.00,262.00,VWS V14.01,2013-07-15 13:20:00,
2013-07-15 08:21:00,78.6,74.1,30.12,SE,127,5.0,5.0,86,0.00,,,0.00,306.00,VWS V14.01,2013-07-15 13:21:00,
2013-07-15 08:26:00,78.7,73.8,30.12,SE,124,4.0,11.0,85,0.00,,,0.00,139.00,VWS V14.01,2013-07-15 13:26:00,
2013-07-15 08:30:00,78.7,73.8,30.12,ESE,109,4.0,11.0,85,0.00,,,0.00,107.00,VWS V14.01,2013-07-15 13:30:00,
2013-07-15 08:31:00,78.7,73.8,30.12,SE,138,7.0,10.0,85,0.00,,,0.00,118.00,VWS V14.01,2013-07-15 13:31:00,
2013-07-15 08:36:00,78.6,73.7,30.13,SE,138,5.0,13.0,85,0.00,,,0.00,204.00,VWS V14.01,2013-07-15 13:36:00,
2013-07-15 08:40:00,78.7,73.8,30.13,ESE,105,7.0,13.0,85,0.00,,,0.00,294.00,VWS V14.01,2013-07-15 13:40:00,
2013-07-15 08:41:00,78.7,73.8,30.13,SE,133,2.0,10.0,85,0.00,,,0.00,244.00,VWS V14.01,2013-07-15 13:41:00,
2013-07-15 08:46:00,78.8,73.6,30.13,East,83,8.0,10.0,84,0.00,,,0.00,153.00,VWS V14.01,2013-07-15 13:46:00,
2013-07-15 08:50:00,78.7,73.5,30.13,SE,136,1.0,13.0,84,0.00,,,0.00,156.00,VWS V14.01,2013-07-15 13:50:00,
2013-07-15 08:51:00,78.7,73.5,30.13,SSE,155,3.0,9.0,84,0.00,,,0.00,141.00,VWS V14.01,2013-07-15 13:51:00,
2013-07-15 08:56:00,78.6,73.7,30.13,ESE,119,4.0,9.0,85,0.00,,,0.00,155.00,VWS V14.01,2013-07-15 13:56:00,
2013-07-15 09:00:00,78.5,73.3,30.13,SE,132,7.0,10.0,84,0.00,,,0.00,165.00,VWS V14.01,2013-07-15 14:00:00,
2013-07-15 09:01:00,78.6,73.7,30.13,SSE,152,0.0,9.0,85,0.00,,,0.00,202.00,VWS V14.01,2013-07-15 14:01:00,
2013-07-15 09:06:00,78.7,73.5,30.14,SE,140,4.0,9.0,84,0.00,,,0.00,302.00,VWS V14.01,2013-07-15 14:06:00,
2013-07-15 09:10:00,78.9,74.0,30.13,SE,132,2.0,9.0,85,0.00,,,0.00,538.00,VWS V14.01,2013-07-15 14:10:00,
2013-07-15 09:11:00,79.2,74.3,30.13,SE,138,5.0,7.0,85,0.00,,,0.00,603.00,VWS V14.01,2013-07-15 14:11:00,
2013-07-15 09:16:00,80.0,74.0,30.14,SSE,152,1.0,10.0,82,0.00,,,0.00,257.00,VWS V14.01,2013-07-15 14:16:00,
2013-07-15 09:21:00,80.2,73.8,30.13,ESE,119,3.0,8.0,81,0.00,,,0.00,274.00,VWS V14.01,2013-07-15 14:21:00,
2013-07-15 09:26:00,81.2,74.8,30.13,East,84,13.0,13.0,81,0.00,,,0.00,652.00,VWS V14.01,2013-07-15 14:26:00,
2013-07-15 09:30:00,81.6,74.5,30.13,SSE,155,5.0,13.0,79,0.00,,,0.00,707.00,VWS V14.01,2013-07-15 14:30:00,
2013-07-15 09:31:00,81.8,74.7,30.13,SE,142,3.0,8.0,79,0.00,,,0.00,649.00,VWS V14.01,2013-07-15 14:31:00,
2013-07-15 09:36:00,82.5,74.9,30.13,SE,128,1.0,8.0,78,0.00,,,0.00,675.00,VWS V14.01,2013-07-15 14:36:00,
2013-07-15 09:41:00,82.9,74.9,30.14,ESE,112,5.0,9.0,77,0.00,,,0.00,816.00,VWS V14.01,2013-07-15 14:41:00,
2013-07-15 09:46:00,82.7,74.8,30.13,ESE,110,8.0,10.0,77,0.00,,,0.00,837.00,VWS V14.01,2013-07-15 14:46:00,
2013-07-15 09:50:00,83.0,75.1,30.13,ESE,106,5.0,10.0,77,0.00,,,0.00,853.00,VWS V14.01,2013-07-15 14:50:00,
2013-07-15 09:52:00,83.0,74.7,30.13,ESE,122,10.0,11.0,76,0.00,,,0.00,223.00,VWS V14.01,2013-07-15 14:52:00,
2013-07-15 09:57:00,81.9,73.6,30.13,ESE,104,5.0,12.0,76,0.00,,,0.00,318.00,VWS V14.01,2013-07-15 14:57:00,
2013-07-15 10:00:00,81.9,73.2,30.13,SE,133,6.0,12.0,75,0.00,,,0.00,346.00,VWS V14.01,2013-07-15 15:00:00,
2013-07-15 10:02:00,81.9,73.6,30.13,SE,132,4.0,10.0,76,0.00,,,0.00,350.00,VWS V14.01,2013-07-15 15:02:00,
2013-07-15 10:07:00,82.5,74.6,30.13,ESE,117,2.0,10.0,77,0.00,,,0.00,350.00,VWS V14.01,2013-07-15 15:07:00,
2013-07-15 10:10:00,83.1,74.8,30.13,ESE,117,4.0,10.0,76,0.00,,,0.00,323.00,VWS V14.01,2013-07-15 15:10:00,
2013-07-15 10:12:00,83.3,74.6,30.14,SE,128,7.0,9.0,75,0.00,,,0.00,323.00,VWS V14.01,2013-07-15 15:12:00,
2013-07-15 10:17:00,83.2,74.5,30.14,ESE,115,8.0,12.0,75,0.00,,,0.00,912.00,VWS V14.01,2013-07-15 15:17:00,
2013-07-15 10:22:00,83.4,74.2,30.13,SSE,164,1.0,10.0,74,0.00,,,0.00,884.00,VWS V14.01,2013-07-15 15:22:00,
2013-07-15 10:27:00,84.6,74.6,30.14,South,184,2.0,13.0,72,0.00,,,0.00,712.00,VWS V14.01,2013-07-15 15:27:00,
2013-07-15 10:32:00,83.5,73.9,30.14,ESE,115,5.0,9.0,73,0.00,,,0.00,185.00,VWS V14.01,2013-07-15 15:32:00,
2013-07-15 10:37:00,82.7,74.0,30.13,ESE,114,5.0,9.0,75,0.00,,,0.00,156.00,VWS V14.01,2013-07-15 15:37:00,
2013-07-15 10:40:00,82.4,73.7,30.13,ESE,117,3.0,9.0,75,0.00,,,0.00,204.00,VWS V14.01,2013-07-15 15:40:00,
2013-07-15 10:43:00,82.2,74.3,30.13,ESE,123,5.0,8.0,77,0.00,,,0.00,223.00,VWS V14.01,2013-07-15 15:43:00,
2013-07-15 10:48:00,82.6,74.7,30.13,SSE,152,0.0,8.0,77,0.00,,,0.00,953.00,VWS V14.01,2013-07-15 15:48:00,
2013-07-15 10:50:00,83.2,74.5,30.13,SE,131,5.0,8.0,75,0.00,,,0.00,953.00,VWS V14.01,2013-07-15 15:50:00,
2013-07-15 10:53:00,83.6,74.4,30.13,SW,225,0.0,8.0,74,0.00,,,0.00,336.00,VWS V14.01,2013-07-15 15:53:00,
2013-07-15 10:58:00,84.0,73.6,30.12,SE,138,11.0,12.0,71,0.00,,,0.00,336.00,VWS V14.01,2013-07-15 15:58:00,
2013-07-15 11:00:00,84.2,73.8,30.12,ESE,114,9.0,15.0,71,0.00,,,0.00,336.00,VWS V14.01,2013-07-15 16:00:00,
2013-07-15 11:03:00,84.6,73.7,30.13,SE,130,6.0,13.0,70,0.00,,,0.00,336.00,VWS V14.01,2013-07-15 16:03:00,
2013-07-15 11:08:00,84.7,73.8,30.13,SE,128,2.0,13.0,70,0.00,,,0.00,292.00,VWS V14.01,2013-07-15 16:08:00,
2013-07-15 11:13:00,85.4,74.1,30.13,East,97,1.0,9.0,69,0.00,,,0.00,956.00,VWS V14.01,2013-07-15 16:13:00,
2013-07-15 11:18:00,85.5,74.2,30.12,ESE,105,4.0,10.0,69,0.00,,,0.00,972.00,VWS V14.01,2013-07-15 16:18:00,
2013-07-15 11:20:00,85.7,74.4,30.12,ESE,103,11.0,16.0,69,0.00,,,0.00,1002.00,VWS V14.01,2013-07-15 16:20:00,
2013-07-15 11:23:00,85.7,73.9,30.12,East,84,9.0,13.0,68,0.00,,,0.00,1069.00,VWS V14.01,2013-07-15 16:23:00,
2013-07-15 11:28:00,85.9,75.0,30.12,ESE,114,7.0,13.0,70,0.00,,,0.00,1211.00,VWS V14.01,2013-07-15 16:28:00,
2013-07-15 11:30:00,86.0,75.1,30.12,SE,145,4.0,13.0,70,0.00,,,0.00,780.00,VWS V14.01,2013-07-15 16:30:00,
2013-07-15 11:33:00,86.5,74.7,30.12,ESE,118,5.0,10.0,68,0.00,,,0.00,1199.00,VWS V14.01,2013-07-15 16:33:00,
2013-07-15 11:38:00,86.5,74.7,30.12,East,88,11.0,15.0,68,0.00,,,0.00,1086.00,VWS V14.01,2013-07-15 16:38:00,
2013-07-15 11:40:00,86.2,74.4,30.12,ESE,121,9.0,15.0,68,0.00,,,0.00,1086.00,VWS V14.01,2013-07-15 16:40:00,
2013-07-15 11:44:00,85.8,74.5,30.12,ESE,117,14.0,14.0,69,0.00,,,0.00,1065.00,VWS V14.01,2013-07-15 16:44:00,
2013-07-15 11:49:00,86.1,74.8,30.12,SE,129,6.0,14.0,69,0.00,,,0.00,1016.00,VWS V14.01,2013-07-15 16:49:00,
2013-07-15 11:50:00,86.2,74.4,30.12,ESE,110,8.0,14.0,68,0.00,,,0.00,993.00,VWS V14.01,2013-07-15 16:50:00,
2013-07-15 11:54:00,86.6,74.3,30.12,ESE,111,4.0,9.0,67,0.00,,,0.00,1058.00,VWS V14.01,2013-07-15 16:54:00,
2013-07-15 11:59:00,86.8,74.1,30.12,SSE,153,8.0,12.0,66,0.00,,,0.00,1114.00,VWS V14.01,2013-07-15 16:59:00,
2013-07-15 12:00:00,86.7,74.0,30.12,SE,124,7.0,12.0,66,0.00,,,0.00,1083.00,VWS V14.01,2013-07-15 17:00:00,
2013-07-15 12:04:00,87.1,73.9,30.11,ESE,113,10.0,14.0,65,0.00,,,0.00,1118.00,VWS V14.01,2013-07-15 17:04:00,
2013-07-15 12:09:00,86.8,73.6,30.12,ESE,111,5.0,14.0,65,0.00,,,0.00,461.00,VWS V14.01,2013-07-15 17:09:00,
2013-07-15 12:10:00,86.6,73.4,30.12,ESE,121,7.0,14.0,65,0.00,,,0.00,461.00,VWS V14.01,2013-07-15 17:10:00,
2013-07-15 12:14:00,86.4,73.2,30.12,SE,142,4.0,14.0,65,0.00,,,0.00,253.00,VWS V14.01,2013-07-15 17:14:00,
2013-07-15 12:19:00,85.9,74.1,30.12,ESE,111,2.0,14.0,68,0.00,,,0.00,290.00,VWS V14.01,2013-07-15 17:19:00,
2013-07-15 12:20:00,85.9,74.1,30.12,South,171,2.0,14.0,68,0.00,,,0.00,290.00,VWS V14.01,2013-07-15 17:20:00,
2013-07-15 12:24:00,86.5,74.2,30.12,ESE,119,5.0,12.0,67,0.00,,,0.00,547.00,VWS V14.01,2013-07-15 17:24:00,
2013-07-15 12:29:00,86.6,74.3,30.12,SE,132,7.0,12.0,67,0.00,,,0.00,406.00,VWS V14.01,2013-07-15 17:29:00,
2013-07-15 12:30:00,86.6,74.3,30.12,SSE,150,8.0,12.0,67,0.00,,,0.00,482.00,VWS V14.01,2013-07-15 17:30:00,
2013-07-15 12:34:00,87.0,75.2,30.12,ESE,119,4.0,11.0,68,0.00,,,0.00,694.00,VWS V14.01,2013-07-15 17:34:00,
2013-07-15 12:39:00,86.8,74.1,30.12,SE,130,3.0,11.0,66,0.00,,,0.00,418.00,VWS V14.01,2013-07-15 17:39:00,
2013-07-15 12:40:00,86.7,74.9,30.12,SE,126,12.0,12.0,68,0.00,,,0.00,418.00,VWS V14.01,2013-07-15 17:40:00,
2013-07-15 12:44:00,86.3,74.5,30.12,SSE,161,3.0,12.0,68,0.00,,,0.00,320.00,VWS V14.01,2013-07-15 17:44:00,
2013-07-15 12:50:00,86.2,74.0,30.12,SE,140,2.0,12.0,67,0.00,,,0.00,311.00,VWS V14.01,2013-07-15 17:50:00,
2013-07-15 12:55:00,86.3,74.9,30.12,SE,142,1.0,7.0,69,0.00,,,0.00,533.00,VWS V14.01,2013-07-15 17:55:00,
2013-07-15 13:00:00,86.5,74.2,30.11,SE,139,6.0,16.0,67,0.00,,,0.00,269.00,VWS V14.01,2013-07-15 18:00:00,
2013-07-15 13:05:00,86.3,74.5,30.11,ESE,113,3.0,13.0,68,0.00,,,0.00,1369.00,VWS V14.01,2013-07-15 18:05:00,
2013-07-15 13:10:00,87.3,74.6,30.11,SSE,167,1.0,8.0,66,0.00,,,0.00,1257.00,VWS V14.01,2013-07-15 18:10:00,
2013-07-15 13:15:00,86.7,74.4,30.11,SE,130,4.0,16.0,67,0.00,,,0.00,457.00,VWS V14.01,2013-07-15 18:15:00,
2013-07-15 13:20:00,85.6,73.4,30.12,South,172,8.0,16.0,67,0.00,,,0.00,464.00,VWS V14.01,2013-07-15 18:20:00,
2013-07-15 13:21:00,85.3,73.6,30.11,SE,130,3.0,8.0,68,0.00,,,0.00,548.00,VWS V14.01,2013-07-15 18:21:00,
2013-07-15 13:26:00,85.1,73.8,30.11,SSE,148,1.0,11.0,69,0.00,,,0.00,487.00,VWS V14.01,2013-07-15 18:26:00,
2013-07-15 13:31:00,85.2,74.3,30.11,South,183,5.0,10.0,70,0.00,,,0.00,1190.00,VWS V14.01,2013-07-15 18:31:00,
2013-07-15 13:36:00,85.7,75.2,30.11,South,180,0.0,10.0,71,0.00,,,0.00,246.00,VWS V14.01,2013-07-15 18:36:00,
2013-07-15 13:40:00,84.4,74.0,30.12,South,190,1.0,10.0,71,0.00,,,0.00,253.00,VWS V14.01,2013-07-15 18:40:00,
2013-07-15 13:41:00,84.1,74.5,30.11,South,172,1.0,4.0,73,0.00,,,0.00,253.00,VWS V14.01,2013-07-15 18:41:00,
2013-07-15 13:46:00,83.8,73.4,30.11,South,173,2.0,13.0,71,0.00,,,0.00,352.00,VWS V14.01,2013-07-15 18:46:00,
2013-07-15 13:50:00,84.4,73.6,30.11,South,169,6.0,13.0,70,0.00,,,0.00,1020.00,VWS V14.01,2013-07-15 18:50:00,
2013-07-15 13:51:00,84.5,74.1,30.11,SSE,167,1.0,10.0,71,0.00,,,0.00,997.00,VWS V14.01,2013-07-15 18:51:00,
2013-07-15 13:56:00,85.4,74.1,30.11,SSE,168,5.0,10.0,69,0.00,,,0.00,981.00,VWS V14.01,2013-07-15 18:56:00,
2013-07-15 14:00:00,85.4,73.2,30.10,ESE,109,3.0,12.0,67,0.00,,,0.00,977.00,VWS V14.01,2013-07-15 19:00:00,
2013-07-15 14:01:00,85.5,73.7,30.10,South,183,0.0,6.0,68,0.00,,,0.00,993.00,VWS V14.01,2013-07-15 19:01:00,
2013-07-15 14:06:00,86.0,74.2,30.10,South,191,1.0,11.0,68,0.00,,,0.00,1000.00,VWS V14.01,2013-07-15 19:06:00,
2013-07-15 14:10:00,86.1,74.8,30.10,South,177,8.0,11.0,69,0.00,,,0.00,1048.00,VWS V14.01,2013-07-15 19:10:00,
2013-07-15 14:11:00,86.1,74.8,30.10,South,181,5.0,10.0,69,0.00,,,0.00,990.00,VWS V14.01,2013-07-15 19:11:00,
2013-07-15 14:16:00,86.1,74.8,30.10,SE,142,5.0,13.0,69,0.00,,,0.00,1000.00,VWS V14.01,2013-07-15 19:16:00,
2013-07-15 14:20:00,86.4,75.0,30.10,South,180,8.0,13.0,69,0.00,,,0.00,984.00,VWS V14.01,2013-07-15 19:20:00,
2013-07-15 14:21:00,86.4,75.0,30.10,ESE,107,3.0,10.0,69,0.00,,,0.00,984.00,VWS V14.01,2013-07-15 19:21:00,
2013-07-15 14:26:00,86.8,74.5,30.10,WSW,237,5.0,10.0,67,0.00,,,0.00,1014.00,VWS V14.01,2013-07-15 19:26:00,
2013-07-15 14:30:00,87.1,75.3,30.09,ENE,68,2.0,10.0,68,0.00,,,0.00,1004.00,VWS V14.01,2013-07-15 19:30:00,
2013-07-15 14:31:00,86.9,73.3,30.09,South,169,2.0,12.0,64,0.00,,,0.00,984.00,VWS V14.01,2013-07-15 19:31:00,
2013-07-15 14:36:00,87.4,74.2,30.09,SSW,211,6.0,12.0,65,0.00,,,0.00,1002.00,VWS V14.01,2013-07-15 19:36:00,
2013-07-15 14:40:00,87.2,74.0,30.09,ESE,121,9.0,12.0,65,0.00,,,0.00,977.00,VWS V14.01,2013-07-15 19:40:00,
2013-07-15 14:41:00,87.3,74.1,30.09,SSE,164,6.0,9.0,65,0.00,,,0.00,977.00,VWS V14.01,2013-07-15 19:41:00,
2013-07-15 14:47:00,87.8,74.6,30.09,South,171,4.0,10.0,65,0.00,,,0.00,949.00,VWS V14.01,2013-07-15 19:47:00,
2013-07-15 14:52:00,87.7,74.0,30.09,SSE,148,0.0,11.0,64,0.00,,,0.00,951.00,VWS V14.01,2013-07-15 19:52:00,
2013-07-15 14:57:00,88.4,74.7,30.09,SE,125,1.0,12.0,64,0.00,,,0.00,949.00,VWS V14.01,2013-07-15 19:57:00,
2013-07-15 15:00:00,88.9,74.2,30.09,SSW,196,4.0,12.0,62,0.00,,,0.00,949.00,VWS V14.01,2013-07-15 20:00:00,
2013-07-15 15:02:00,88.9,73.7,30.08,South,190,2.0,9.0,61,0.00,,,0.00,914.00,VWS V14.01,2013-07-15 20:02:00,
2013-07-15 15:07:00,89.0,73.8,30.08,SSE,167,4.0,11.0,61,0.00,,,0.00,935.00,VWS V14.01,2013-07-15 20:07:00,
2013-07-15 15:10:00,88.9,73.7,30.08,South,180,7.0,11.0,61,0.00,,,0.00,932.00,VWS V14.01,2013-07-15 20:10:00,
2013-07-15 15:12:00,88.5,73.3,30.08,South,173,4.0,9.0,61,0.00,,,0.00,916.00,VWS V14.01,2013-07-15 20:12:00,
2013-07-15 15:17:00,88.2,74.5,30.08,SSW,198,3.0,9.0,64,0.00,,,0.00,912.00,VWS V14.01,2013-07-15 20:17:00,
2013-07-15 15:20:00,88.4,74.2,30.08,SSW,192,3.0,11.0,63,0.00,,,0.00,874.00,VWS V14.01,2013-07-15 20:20:00,
2013-07-15 15:23:00,88.6,74.4,30.08,SE,130,9.0,10.0,63,0.00,,,0.00,867.00,VWS V14.01,2013-07-15 20:23:00,
2013-07-15 15:28:00,89.3,74.6,30.08,SSW,200,7.0,11.0,62,0.00,,,0.00,830.00,VWS V14.01,2013-07-15 20:28:00,
2013-07-15 15:33:00,89.5,73.8,30.08,ESE,105,3.0,7.0,60,0.00,,,0.00,881.00,VWS V14.01,2013-07-15 20:33:00,
2013-07-15 15:38:00,89.7,74.0,30.07,South,180,4.0,10.0,60,0.00,,,0.00,851.00,VWS V14.01,2013-07-15 20:38:00,
2013-07-15 15:40:00,89.4,73.7,30.07,SE,140,7.0,10.0,60,0.00,,,0.00,872.00,VWS V14.01,2013-07-15 20:40:00,
2013-07-15 15:43:00,89.1,73.9,30.07,ESE,107,2.0,8.0,61,0.00,,,0.00,877.00,VWS V14.01,2013-07-15 20:43:00,
2013-07-15 15:49:00,89.0,74.3,30.07,SSE,150,2.0,9.0,62,0.00,,,0.00,846.00,VWS V14.01,2013-07-15 20:49:00,
2013-07-15 15:50:00,89.0,74.3,30.07,SSE,157,8.0,9.0,62,0.00,,,0.00,846.00,VWS V14.01,2013-07-15 20:50:00,
2013-07-15 15:54:00,89.4,74.7,30.07,SE,126,3.0,9.0,62,0.00,,,0.00,886.00,VWS V14.01,2013-07-15 20:54:00,
2013-07-15 15:59:00,89.7,75.0,30.07,SSE,159,0.0,9.0,62,0.00,,,0.00,343.00,VWS V14.01,2013-07-15 20:59:00,
2013-07-15 16:00:00,89.8,74.6,30.07,South,179,2.0,9.0,61,0.00,,,0.00,343.00,VWS V14.01,2013-07-15 21:00:00,
2013-07-15 16:04:00,90.5,74.7,30.07,WSW,246,2.0,5.0,60,0.00,,,0.00,896.00,VWS V14.01,2013-07-15 21:04:00,
2013-07-15 16:09:00,90.4,74.1,30.07,South,182,3.0,9.0,59,0.00,,,0.00,847.00,VWS V14.01,2013-07-15 21:09:00,
2013-07-15 16:10:00,90.3,74.5,30.07,SSE,156,1.0,9.0,60,0.00,,,0.00,846.00,VWS V14.01,2013-07-15 21:10:00,
2013-07-15 16:14:00,90.4,75.1,30.07,SSW,204,2.0,8.0,61,0.00,,,0.00,816.00,VWS V14.01,2013-07-15 21:14:00,
2013-07-15 16:19:00,90.2,74.4,30.07,SE,134,6.0,10.0,60,0.00,,,0.00,209.00,VWS V14.01,2013-07-15 21:19:00,
2013-07-15 16:20:00,89.8,74.1,30.07,ESE,123,1.0,10.0,60,0.00,,,0.00,209.00,VWS V14.01,2013-07-15 21:20:00,
2013-07-15 16:24:00,89.2,75.0,30.07,SE,136,4.0,6.0,63,0.00,,,0.00,810.00,VWS V14.01,2013-07-15 21:24:00,
2013-07-15 16:29:00,88.9,74.2,30.07,ESE,106,5.0,8.0,62,0.00,,,0.00,846.00,VWS V14.01,2013-07-15 21:29:00,
2013-07-15 16:34:00,88.4,74.2,30.07,East,84,6.0,10.0,63,0.00,,,0.00,209.00,VWS V14.01,2013-07-15 21:34:00,
2013-07-15 16:40:00,88.1,74.4,30.07,ESE,123,4.0,10.0,64,0.00,,,0.00,185.00,VWS V14.01,2013-07-15 21:40:00,
2013-07-15 16:45:00,88.0,74.8,30.06,ESE,117,4.0,8.0,65,0.00,,,0.00,142.00,VWS V14.01,2013-07-15 21:45:00,
2013-07-15 16:50:00,87.6,74.4,30.07,SE,124,3.0,8.0,65,0.00,,,0.00,202.00,VWS V14.01,2013-07-15 21:50:00,
2013-07-15 16:55:00,87.6,74.4,30.06,ESE,119,4.0,8.0,65,0.00,,,0.00,255.00,VWS V14.01,2013-07-15 21:55:00,
2013-07-15 17:00:00,88.2,75.0,30.06,SE,130,1.0,5.0,65,0.00,,,0.00,784.00,VWS V14.01,2013-07-15 22:00:00,
2013-07-15 17:05:00,88.7,75.0,30.06,SE,126,1.0,5.0,64,0.00,,,0.00,281.00,VWS V14.01,2013-07-15 22:05:00,
2013-07-15 17:10:00,88.9,75.6,30.06,ESE,111,4.0,5.0,65,0.00,,,0.00,661.00,VWS V14.01,2013-07-15 22:10:00,
2013-07-15 17:15:00,88.3,75.1,30.06,ESE,112,5.0,8.0,65,0.00,,,0.00,195.00,VWS V14.01,2013-07-15 22:15:00,
2013-07-15 17:20:00,87.7,75.4,30.06,ESE,102,8.0,8.0,67,0.00,,,0.00,214.00,VWS V14.01,2013-07-15 22:20:00,
2013-07-15 17:25:00,87.1,75.7,30.06,East,79,6.0,8.0,69,0.00,,,0.00,127.00,VWS V14.01,2013-07-15 22:25:00,
2013-07-15 17:30:00,85.8,77.0,30.07,ESE,121,3.0,8.0,75,0.06,,,0.06,72.00,VWS V14.01,2013-07-15 22:30:00,
2013-07-15 17:31:00,85.3,76.9,30.07,East,83,5.0,8.0,76,0.07,,,0.07,70.00,VWS V14.01,2013-07-15 22:31:00,
2013-07-15 17:36:00,83.4,75.1,30.07,East,80,0.0,8.0,76,0.07,,,0.07,60.00,VWS V14.01,2013-07-15 22:36:00,
2013-07-15 17:40:00,82.7,75.9,30.07,East,95,2.0,8.0,80,0.07,,,0.07,81.00,VWS V14.01,2013-07-15 22:40:00,
2013-07-15 17:41:00,82.5,75.7,30.07,East,95,0.0,2.0,80,0.07,,,0.07,88.00,VWS V14.01,2013-07-15 22:41:00,
2013-07-15 17:46:00,82.5,76.4,30.07,East,96,3.0,8.0,82,0.07,,,0.07,151.00,VWS V14.01,2013-07-15 22:46:00,
2013-07-15 17:50:00,82.6,76.2,30.07,ESE,113,5.0,10.0,81,0.07,,,0.07,179.00,VWS V14.01,2013-07-15 22:50:00,
2013-07-15 17:51:00,82.7,76.3,30.07,ESE,123,5.0,7.0,81,0.07,,,0.07,156.00,VWS V14.01,2013-07-15 22:51:00,
2013-07-15 17:56:00,82.8,76.8,30.06,SE,125,5.0,8.0,82,0.07,,,0.07,142.00,VWS V14.01,2013-07-15 22:56:00,
2013-07-15 18:00:00,82.8,76.8,30.06,ESE,106,7.0,8.0,82,0.07,,,0.07,109.00,VWS V14.01,2013-07-15 23:00:00,
2013-07-15 18:01:00,82.8,77.1,30.07,ESE,115,5.0,9.0,83,0.08,,,0.08,86.00,VWS V14.01,2013-07-15 23:01:00,
2013-07-15 18:06:00,81.7,76.0,30.08,SE,134,9.0,16.0,83,0.19,,,0.19,54.00,VWS V14.01,2013-07-15 23:06:00,
2013-07-15 18:10:00,79.7,73.7,30.07,SW,220,4.0,16.0,82,0.29,,,0.29,46.00,VWS V14.01,2013-07-15 23:10:00,
2013-07-15 18:11:00,79.4,73.8,30.07,West,271,1.0,6.0,83,0.31,,,0.31,42.00,VWS V14.01,2013-07-15 23:11:00,
2013-07-15 18:16:00,78.6,73.7,30.07,SSE,154,0.0,6.0,85,0.39,,,0.39,25.00,VWS V14.01,2013-07-15 23:16:00,
2013-07-15 18:21:00,78.4,74.2,30.08,SSE,154,1.0,1.0,87,0.43,,,0.43,25.00,VWS V14.01,2013-07-15 23:21:00,
2013-07-15 18:26:00,78.3,74.5,30.08,SSW,207,3.0,3.0,88,0.43,,,0.43,16.00,VWS V14.01,2013-07-15 23:26:00,
2013-07-15 18:31:00,78.4,74.9,30.09,South,189,0.0,4.0,89,0.37,,,0.43,26.00,VWS V14.01,2013-07-15 23:31:00,
2013-07-15 18:37:00,78.3,74.8,30.09,SW,228,2.0,4.0,89,0.37,,,0.43,30.00,VWS V14.01,2013-07-15 23:37:00,
2013-07-15 18:42:00,78.2,75.0,30.09,SW,232,0.0,0.0,90,0.36,,,0.43,35.00,VWS V14.01,2013-07-15 23:42:00,
2013-07-15 18:47:00,78.0,74.8,30.09,SW,232,0.0,0.0,90,0.36,,,0.43,35.00,VWS V14.01,2013-07-15 23:47:00,
2013-07-15 18:52:00,78.0,74.8,30.09,SW,232,0.0,1.0,90,0.36,,,0.43,30.00,VWS V14.01,2013-07-15 23:52:00,
2013-07-15 18:57:00,78.1,75.3,30.09,SW,232,0.0,1.0,91,0.36,,,0.43,26.00,VWS V14.01,2013-07-15 23:57:00,
2013-07-15 19:02:00,78.3,75.5,30.09,SW,225,1.0,1.0,91,0.36,,,0.43,23.00,VWS V14.01,2013-07-16 00:02:00,
2013-07-15 19:07:00,78.5,75.7,30.09,SE,130,2.0,3.0,91,0.36,,,0.43,23.00,VWS V14.01,2013-07-16 00:07:00,
2013-07-15 19:12:00,78.7,75.5,30.09,ESE,113,3.0,3.0,90,0.14,,,0.43,25.00,VWS V14.01,2013-07-16 00:12:00,
2013-07-15 19:17:00,79.0,75.5,30.10,SE,124,3.0,5.0,89,0.14,,,0.43,23.00,VWS V14.01,2013-07-16 00:17:00,
2013-07-15 19:22:00,79.4,75.5,30.10,SE,125,4.0,5.0,88,0.00,,,0.43,18.00,VWS V14.01,2013-07-16 00:22:00,
2013-07-15 19:27:00,79.6,75.4,30.10,ESE,117,0.0,5.0,87,0.00,,,0.43,16.00,VWS V14.01,2013-07-16 00:27:00,
2013-07-15 19:32:00,79.7,75.2,30.10,SE,126,1.0,3.0,86,0.00,,,0.43,16.00,VWS V14.01,2013-07-16 00:32:00,
2013-07-15 19:38:00,79.6,75.4,30.11,SE,125,1.0,3.0,87,0.00,,,0.43,16.00,VWS V14.01,2013-07-16 00:38:00,
2013-07-15 19:43:00,79.4,75.2,30.11,SE,125,0.0,1.0,87,0.00,,,0.43,14.00,VWS V14.01,2013-07-16 00:43:00,
2013-07-15 19:49:00,79.3,75.1,30.11,SE,125,2.0,4.0,87,0.00,,,0.43,11.00,VWS V14.01,2013-07-16 00:49:00,
2013-07-15 19:54:00,79.2,75.0,30.11,SE,125,0.0,1.0,87,0.00,,,0.43,7.00,VWS V14.01,2013-07-16 00:54:00,
2013-07-15 19:59:00,79.1,75.2,30.11,SE,126,0.0,1.0,88,0.00,,,0.43,5.00,VWS V14.01,2013-07-16 00:59:00,
2013-07-15 20:04:00,79.0,75.2,30.11,SE,126,0.0,0.0,88,0.00,,,0.43,0.00,VWS V14.01,2013-07-16 01:04:00,
2013-07-15 20:09:00,78.9,75.1,30.12,SE,125,0.0,0.0,88,0.00,,,0.43,0.00,VWS V14.01,2013-07-16 01:09:00,
2013-07-15 20:15:00,78.9,75.1,30.12,SE,126,0.0,1.0,88,0.00,,,0.43,0.00,VWS V14.01,2013-07-16 01:15:00,
2013-07-15 20:20:00,78.8,74.9,30.12,SE,126,0.0,1.0,88,0.00,,,0.43,0.00,VWS V14.01,2013-07-16 01:20:00,
2013-07-15 20:25:00,78.8,74.9,30.12,SE,126,0.0,1.0,88,0.00,,,0.43,0.00,VWS V14.01,2013-07-16 01:25:00,
2013-07-15 20:30:00,78.7,74.8,30.12,SE,125,0.0,2.0,88,0.00,,,0.43,0.00,VWS V14.01,2013-07-16 01:30:00,
2013-07-15 20:35:00,78.7,74.8,30.13,SE,126,0.0,2.0,88,0.00,,,0.43,0.00,VWS V14.01,2013-07-16 01:35:00,
2013-07-15 20:40:00,78.7,74.8,30.13,SE,126,0.0,3.0,88,0.00,,,0.43,0.00,VWS V14.01,2013-07-16 01:40:00,
2013-07-15 20:45:00,78.7,74.8,30.13,SE,126,2.0,4.0,88,0.00,,,0.43,0.00,VWS V14.01,2013-07-16 01:45:00,
2013-07-15 20:50:00,78.9,74.7,30.13,ESE,122,2.0,2.0,87,0.00,,,0.43,0.00,VWS V14.01,2013-07-16 01:50:00,
2013-07-15 20:55:00,79.1,74.6,30.13,ESE,121,3.0,5.0,86,0.00,,,0.43,0.00,VWS V14.01,2013-07-16 01:55:00,
2013-07-15 21:00:00,79.1,74.6,30.13,ESE,119,4.0,4.0,86,0.00,,,0.43,0.00,VWS V14.01,2013-07-16 02:00:00,
2013-07-15 21:05:00,79.1,74.6,30.13,SE,124,3.0,5.0,86,0.00,,,0.43,0.00,VWS V14.01,2013-07-16 02:05:00,
2013-07-15 21:10:00,79.3,74.4,30.13,ESE,119,3.0,4.0,85,0.00,,,0.43,0.00,VWS V14.01,2013-07-16 02:10:00,
2013-07-15 21:15:00,79.4,74.5,30.13,SE,126,4.0,6.0,85,0.00,,,0.43,0.00,VWS V14.01,2013-07-16 02:15:00,
2013-07-15 21:20:00,79.4,74.5,30.14,SE,130,0.0,3.0,85,0.00,,,0.43,0.00,VWS V14.01,2013-07-16 02:20:00,
2013-07-15 21:25:00,79.4,74.2,30.14,SE,126,4.0,6.0,84,0.00,,,0.43,0.00,VWS V14.01,2013-07-16 02:25:00,
2013-07-15 21:31:00,79.4,74.2,30.14,SE,135,5.0,5.0,84,0.00,,,0.43,0.00,VWS V14.01,2013-07-16 02:31:00,
2013-07-15 21:35:00,79.4,73.8,30.14,ESE,121,5.0,8.0,83,0.00,,,0.43,0.00,VWS V14.01,2013-07-16 02:35:00,
2013-07-15 21:40:00,79.4,74.2,30.15,ESE,122,2.0,3.0,84,0.00,,,0.43,0.00,VWS V14.01,2013-07-16 02:40:00,
2013-07-15 21:46:00,79.2,73.9,30.14,SE,126,5.0,5.0,84,0.00,,,0.43,0.00,VWS V14.01,2013-07-16 02:46:00,
2013-07-15 21:51:00,79.1,73.8,30.15,SE,130,0.0,4.0,84,0.00,,,0.43,0.00,VWS V14.01,2013-07-16 02:51:00,
2013-07-15 21:56:00,78.9,73.7,30.14,ESE,123,4.0,6.0,84,0.00,,,0.43,0.00,VWS V14.01,2013-07-16 02:56:00,
2013-07-15 22:01:00,78.7,73.5,30.15,SE,126,2.0,5.0,84,0.00,,,0.43,0.00,VWS V14.01,2013-07-16 03:01:00,
2013-07-15 22:06:00,78.7,73.5,30.14,SE,124,3.0,5.0,84,0.00,,,0.43,0.00,VWS V14.01,2013-07-16 03:06:00,
2013-07-15 22:11:00,78.6,73.4,30.15,SE,142,0.0,3.0,84,0.00,,,0.43,0.00,VWS V14.01,2013-07-16 03:11:00,
2013-07-15 22:16:00,78.4,73.2,30.15,SE,142,0.0,3.0,84,0.00,,,0.43,0.00,VWS V14.01,2013-07-16 03:16:00,
2013-07-15 22:22:00,78.3,73.1,30.14,SE,135,0.0,3.0,84,0.00,,,0.43,0.00,VWS V14.01,2013-07-16 03:22:00,
2013-07-15 22:27:00,78.2,73.0,30.15,SE,138,2.0,3.0,84,0.00,,,0.43,0.00,VWS V14.01,2013-07-16 03:27:00,
2013-07-15 22:32:00,78.2,73.0,30.15,ESE,109,0.0,2.0,84,0.00,,,0.43,0.00,VWS V14.01,2013-07-16 03:32:00,
2013-07-15 22:37:00,78.2,73.0,30.15,ESE,109,0.0,2.0,84,0.00,,,0.43,0.00,VWS V14.01,2013-07-16 03:37:00,
2013-07-15 22:42:00,78.1,72.9,30.14,ESE,107,0.0,0.0,84,0.00,,,0.43,0.00,VWS V14.01,2013-07-16 03:42:00,
2013-07-15 22:47:00,78.0,72.8,30.15,ESE,109,0.0,0.0,84,0.00,,,0.43,0.00,VWS V14.01,2013-07-16 03:47:00,
2013-07-15 22:52:00,77.9,73.0,30.14,ESE,109,0.0,0.0,85,0.00,,,0.43,0.00,VWS V14.01,2013-07-16 03:52:00,
2013-07-15 22:57:00,77.8,72.9,30.14,ESE,110,0.0,1.0,85,0.00,,,0.43,0.00,VWS V14.01,2013-07-16 03:57:00,
2013-07-15 23:01:00,77.7,72.8,30.14,ESE,110,0.0,1.0,85,0.00,,,0.43,0.00,VWS V14.01,2013-07-16 04:01:00,
2013-07-15 23:02:00,77.7,72.8,30.14,ESE,110,0.0,1.0,85,0.00,,,0.43,0.00,VWS V14.01,2013-07-16 04:02:00,
2013-07-15 23:07:00,77.6,73.1,30.14,ESE,113,1.0,3.0,86,0.00,,,0.43,0.00,VWS V14.01,2013-07-16 04:07:00,
2013-07-15 23:12:00,77.5,73.0,30.14,ESE,115,2.0,3.0,86,0.00,,,0.43,0.00,VWS V14.01,2013-07-16 04:12:00,
2013-07-15 23:17:00,77.5,73.0,30.14,SE,124,0.0,4.0,86,0.00,,,0.43,0.00,VWS V14.01,2013-07-16 04:17:00,
2013-07-15 23:22:00,77.5,72.6,30.14,SE,124,0.0,1.0,85,0.00,,,0.43,0.00,VWS V14.01,2013-07-16 04:22:00,
2013-07-15 23:27:00,77.4,72.5,30.14,SE,124,0.0,2.0,85,0.00,,,0.43,0.00,VWS V14.01,2013-07-16 04:27:00,
2013-07-15 23:32:00,77.3,72.8,30.14,SE,124,0.0,2.0,86,0.00,,,0.43,0.00,VWS V14.01,2013-07-16 04:32:00,
2013-07-15 23:37:00,77.4,72.5,30.14,SE,124,1.0,4.0,85,0.00,,,0.43,0.00,VWS V14.01,2013-07-16 04:37:00,
2013-07-15 23:42:00,77.4,72.5,30.14,SE,125,1.0,3.0,85,0.00,,,0.43,0.00,VWS V14.01,2013-07-16 04:42:00,
2013-07-15 23:47:00,77.4,72.5,30.14,SE,125,0.0,3.0,85,0.00,,,0.43,0.00,VWS V14.01,2013-07-16 04:47:00,
2013-07-15 23:52:00,77.4,72.5,30.14,SE,125,0.0,0.0,85,0.00,,,0.43,0.00,VWS V14.01,2013-07-16 04:52:00,
2013-07-15 23:57:00,77.3,72.4,30.14,SE,125,1.0,2.0,85,0.00,,,0.43,0.00,VWS V14.01,2013-07-16 04:57:00,